Regional Weather Roundup
Issued by NWS

Home | Current Version | Previous Version | Text Only | Print | Product List | Glossary On
Versions: 1 2 3 4 5 6 7 8 9 10 11 12 13 14 15 16 17 18 19 20 21 22 23 24 25 26 27 28 29 30 31 32 33 34 35 36 37 38 39 40 41 42 43 44 45 46 47 48 49 50
000
ASUS43 KFSD 251110
RWRSD

WEATHER ROUNDUP FOR SOUTH DAKOTA
NATIONAL WEATHER SERVICE SIOUX FALLS SD
500 AM CST SUN JAN 25 2015

NOTE: "FAIR" INDICATES FEW OR NO CLOUDS BELOW 12,000 FEET WITH NO
SIGNIFICANT WEATHER AND/OR OBSTRUCTIONS TO VISIBILITY.


SDZ001>005-009-010-012>017-251200-
NORTHWEST AND NORTH CENTRAL SOUTH DAKOTA

CITY           SKY/WX    TMP DP  RH WIND       PRES   REMARKS
BUFFALO          N/A     32  25  75 NW17      29.95R WCI  21
FAITH            N/A     33  27  78 NW17      29.99R WCI  22
MOBRIDGE       CLOUDY    38  33  82 NW9       29.90R
$$

SDZ012>016-024>037-041>051-057-063-072>074-251200-
SOUTHWEST AND SOUTH CENTRAL SOUTH DAKOTA

CITY           SKY/WX    TMP DP  RH WIND       PRES   REMARKS
RAPID CTY ARPT CLEAR     37  21  52 NW21      30.02S
PIERRE         CLOUDY    38  31  76 NW20G25   29.93S
CUSTER         CLEAR     34   7  32 N15G26    29.99F WCI  24
ELLSWORTH AFB  CLEAR     37  22  55 NW17      30.02R
PHILIP         CLEAR     36  27  69 NW15      29.99S
PINE RIDGE     CLEAR     28  21  75 SW6       30.03F WCI  22
SPEARFISH      FAIR      36  19  51 W12G18    30.07R
WINNER         CLOUDY    39  31  72 NW22G29   29.93R
$$

SDZ004>011-016>023-039-040-251200-
NORTHEAST SOUTH DAKOTA

CITY           SKY/WX    TMP DP  RH WIND       PRES   REMARKS
ABERDEEN       CLOUDY    29  26  89 N9        29.93R WCI  20
WATERTOWN      CLOUDY    30  27  88 N13       29.86R WCI  20
SISSETON         N/A     26  24  92 N16       29.91R WCI  14
$$

SDZ017-020-022-023-036>040-048>070-251200-
SOUTHEAST SOUTH DAKOTA

CITY           SKY/WX    TMP DP  RH WIND       PRES   REMARKS
SIOUX FALLS    FLURRIES  33  31  92 N16       29.82R WCI  23
HURON          CLOUDY    31  29  92 NW12      29.90R WCI  22
CHAMBERLAIN    CLOUDY    36  33  88 NW17      29.91R
MITCHELL       CLOUDY    32  30  92 N15       29.90R WCI  22
YANKTON        CLOUDY    34  28  80 NW22G29   29.86R WCI  22
$$

ABBREVIATIONS USED IN REMARKS
   TC - TEMPERATURE IN CELSIUS
  WCI - WIND CHILL INDEX
   HX - HEAT INDEX
  VSB - VISIBILITY




USA.gov is the U.S. government's official web portal to all federal, state and local government web resources and services.